GW4720 Weather Reports


time (UTC)temp
F
wind
direction
speed
knots
gust
knots
rain 1hr
in
rain 24hr
in
rain mn
in
humidity
%
barometer
mb
20260510035604 51 228 0.0 2.6 0.00 0.13 0.13 99 1012.6
20260510035103 51 225 0.9 1.7 0.00 0.13 0.13 99 1012.6
20260510034602 52 233 0.9 1.7 0.00 0.13 0.13 99 1012.7
20260510034058 52 225 1.7 1.7 0.00 0.13 0.13 99 1012.6
20260510033555 52 220 0.0 0.9 0.00 0.13 0.13 99 1012.5
20260510033052 52 231 0.9 1.7 0.00 0.13 0.13 99 1012.7
20260510032549 51 232 0.0 0.0 0.00 0.13 0.13 99 1012.8
20260510032044 51 232 0.0 0.0 0.00 0.13 0.13 99 1012.8
20260510031539 52 232 0.0 0.0 0.00 0.13 0.13 99 1012.8
20260510031035 51 233 0.0 0.0 0.00 0.13 0.13 98 1012.7
20260510030530 52 233 0.0 0.0 0.00 0.13 0.13 98 1012.7
20260510030028 53 233 0.0 0.0 0.00 0.13 0.13 98 1012.8
20260510025525 53 233 0.0 0.0 0.00 0.13 0.13 98 1012.7
20260510025023 53 233 0.0 0.0 0.00 0.13 0.13 97 1012.8
20260510024519 53 233 0.0 0.0 0.00 0.13 0.13 97 1012.9
20260510024015 53 233 0.0 1.7 0.00 0.13 0.13 97 1012.6
20260510023511 53 234 0.9 1.7 0.00 0.13 0.13 97 1012.5
20260510023009 53 230 0.9 1.7 0.00 0.13 0.13 97 1012.6
20260510022508 53 225 0.0 0.0 0.00 0.13 0.13 97 1012.8
20260510022008 53 225 0.0 0.9 0.00 0.13 0.13 97 1012.7
20260510021505 53 225 0.9 1.7 0.00 0.13 0.13 97 1012.6
20260510021002 53 204 0.9 1.7 0.00 0.13 0.13 97 1012.5
20260510020456 53 156 0.0 0.0 0.00 0.13 0.13 98 1012.5
20260510015952 53 156 0.0 0.0 0.00 0.13 0.13 96 1012.5
20260510015448 53 156 0.0 0.0 0.00 0.13 0.13 96 1012.4
20260510014943 53 156 0.0 0.0 0.00 0.13 0.13 95 1012.2
20260510014441 53 156 0.0 0.0 0.00 0.13 0.13 94 1012.1
20260510013938 54 156 0.0 0.0 0.00 0.13 0.13 94 1012.1
20260510013432 55 156 0.0 0.0 0.00 0.13 0.13 90 1012.0
20260510012928 56 156 0.0 0.0 0.00 0.13 0.13 91 1011.7
20260510012423 55 157 0.0 0.0 0.00 0.13 0.13 92 1011.8
20260510011918 55 157 0.0 0.0 0.00 0.13 0.13 92 1011.6
20260510011413 55 157 0.0 0.0 0.00 0.13 0.13 93 1011.5
20260510010910 55 157 0.0 0.0 0.00 0.13 0.13 91 1011.5
20260510010407 56 157 0.0 0.0 0.00 0.13 0.13 91 1011.5
20260510005904 56 159 0.0 0.0 0.00 0.13 0.13 90 1011.5
20260510005400 56 159 0.0 0.0 0.00 0.13 0.13 90 1011.2
20260510004858 57 159 0.0 0.0 0.00 0.13 0.13 88 1011.1
20260510004355 58 159 0.0 0.0 0.00 0.13 0.13 87 1011.0
20260510003853 58 159 0.0 0.0 0.00 0.13 0.13 86 1010.9
20260510003349 58 159 0.0 0.0 0.00 0.13 0.13 84 1010.9
20260510002848 61 161 0.0 0.0 0.00 0.13 0.13 81 1010.8
20260510002346 60 167 0.9 0.9 0.00 0.13 0.13 80 1010.9
20260510001842 60 165 0.0 0.0 0.00 0.13 0.13 80 1010.9
20260510001340 61 165 0.0 0.0 0.00 0.13 0.13 79 1010.7
20260510000836 62 150 0.0 0.9 0.00 0.13 0.13 78 1010.8
20260510000334 63 128 0.9 1.7 0.00 0.13 0.13 74 1010.6
20260509235830 64 137 0.9 0.9 0.00 0.13 0.13 72 1010.7
20260509235327 65 157 0.9 0.9 0.00 0.13 0.13 73 1010.8
20260509234822 65 203 0.9 0.9 0.00 0.13 0.13 71 1010.8
20260509234320 66 187 0.9 1.7 0.00 0.13 0.13 71 1010.8
20260509233818 67 221 0.9 1.7 0.00 0.13 0.13 65 1010.7
20260509233315 67 195 0.9 1.7 0.00 0.13 0.13 66 1010.8
20260509232811 68 173 0.9 2.6 0.00 0.13 0.13 66 1010.9
20260509232308 69 141 0.9 0.9 0.00 0.13 0.13 62 1010.8
20260509231804 69 234 0.9 0.9 0.00 0.13 0.13 65 1010.8
20260509231301 69 125 0.0 1.7 0.00 0.13 0.13 64 1010.7
20260509230759 70 166 0.0 1.7 0.00 0.13 0.13 60 1010.8
20260509230256 71 186 0.0 0.9 0.00 0.13 0.13 57 1010.9
20260509225751 70 131 0.0 0.0 0.00 0.13 0.13 59 1010.8
20260509225247 69 131 0.9 1.7 0.00 0.13 0.13 63 1010.7
20260509224743 71 120 0.0 0.9 0.00 0.13 0.13 64 1010.8
20260509224241 70 215 0.9 1.7 0.00 0.13 0.13 64 1010.8
20260509223737 69 100 0.9 1.7 0.00 0.13 0.13 62 1010.8
20260509223235 70 236 0.0 2.6 0.00 0.13 0.13 61 1010.9
20260509222731 70 285 0.9 1.7 0.00 0.13 0.13 61 1011.0
20260509222226 70 206 1.7 2.6 0.00 0.13 0.13 63 1011.0
20260509221722 70 22 0.0 0.9 0.00 0.13 0.13 64 1010.9
20260509221219 70 13 0.0 0.0 0.00 0.13 0.13 63 1011.2
20260509220715 68 100 1.7 1.7 0.00 0.13 0.13 64 1010.8
20260509220212 68 80 0.9 3.5 0.00 0.13 0.13 64 1011.0
20260509215707 67 80 0.9 1.7 0.00 0.13 0.13 66 1010.9
20260509215204 69 129 1.7 2.6 0.00 0.13 0.13 66 1011.2
20260509214701 70 256 0.9 0.9 0.00 0.13 0.13 63 1011.1
20260509214158 69 257 0.0 2.6 0.00 0.13 0.13 65 1011.2
20260509213655 68 238 1.7 2.6 0.00 0.13 0.13 63 1011.0
20260509213150 68 210 0.9 2.6 0.00 0.13 0.13 64 1011.1
20260509212648 67 171 0.0 1.7 0.00 0.13 0.13 67 1010.9
20260509212144 67 32 0.0 0.9 0.00 0.13 0.13 70 1010.9
20260509211640 67 347 2.6 3.5 0.00 0.13 0.13 68 1011.1
20260509211137 67 95 1.7 5.2 0.00 0.13 0.13 70 1011.1
20260509210635 65 49 1.7 1.7 0.00 0.13 0.13 78 1011.1
20260509210132 64 38 0.9 3.5 0.00 0.13 0.13 76 1011.3
20260509205626 64 53 1.7 3.5 0.00 0.13 0.13 76 1011.2
20260509205121 64 130 0.9 3.5 0.00 0.13 0.13 75 1011.5
20260509204617 64 9 1.7 2.6 0.00 0.13 0.13 70 1011.6
20260509204114 65 23 0.9 2.6 0.00 0.13 0.13 68 1011.6
20260509203610 67 347 1.7 2.6 0.00 0.13 0.13 64 1011.5
20260509203109 67 133 1.7 2.6 0.00 0.13 0.13 66 1011.6
20260509202609 66 108 0.0 2.6 0.00 0.13 0.13 70 1011.6
20260509202104 67 120 2.6 3.5 0.00 0.13 0.13 65 1011.6
20260509201604 67 339 1.7 3.5 0.00 0.13 0.13 66 1011.7
20260509201103 65 131 0.0 1.7 0.00 0.13 0.13 71 1011.8
20260509200603 65 116 1.7 3.5 0.00 0.13 0.13 71 1011.8
20260509200059 64 39 1.7 2.6 0.00 0.13 0.13 74 1011.8
20260509195554 63 139 1.7 2.6 0.00 0.13 0.13 75 1011.9
20260509195049 64 164 3.5 3.5 0.00 0.13 0.13 75 1011.9
20260509194549 64 167 0.0 1.7 0.00 0.13 0.13 78 1011.9
20260509194047 62 144 0.0 1.7 0.00 0.13 0.13 79 1011.9
20260509193542 63 192 0.0 2.6 0.00 0.13 0.13 76 1012.0
20260509193039 63 116 2.6 2.6 0.00 0.13 0.13 77 1011.9
20260509192536 63 153 0.0 1.7 0.00 0.13 0.13 76 1012.0
20260509192031 63 124 1.7 2.6 0.00 0.13 0.13 78 1011.8
20260509191531 63 218 0.9 1.7 0.00 0.13 0.13 81 1012.0
20260509191027 62 133 0.9 1.7 0.00 0.13 0.13 83 1011.8
20260509190524 61 222 0.9 1.7 0.00 0.13 0.13 81 1012.0
20260509190022 61 108 1.7 2.6 0.00 0.13 0.13 85 1011.9
20260509185519 61 87 0.0 1.7 0.00 0.13 0.13 85 1012.0
20260509185015 61 87 0.0 1.7 0.00 0.13 0.13 86 1012.2
20260509184514 61 56 1.7 2.6 0.00 0.13 0.13 85 1012.1
20260509184010 61 128 0.9 0.9 0.00 0.13 0.13 84 1012.0
20260509183505 61 16 0.9 1.7 0.00 0.13 0.13 83 1012.3
20260509183001 60 124 0.9 2.6 0.00 0.13 0.13 84 1012.3
20260509182457 62 77 1.7 3.5 0.00 0.13 0.13 83 1012.2
20260509181954 62 71 1.7 5.2 0.00 0.13 0.13 84 1011.9
20260509181453 61 211 2.6 3.5 0.00 0.13 0.13 87 1012.2
20260509180950 59 118 3.5 6.1 0.00 0.13 0.13 90 1012.1
20260509180445 59 124 2.6 2.6 0.00 0.13 0.13 89 1012.3
20260509175942 60 137 3.5 3.5 0.00 0.13 0.13 89 1012.5
20260509175439 58 109 0.0 1.7 0.00 0.13 0.13 92 1012.5
20260509174935 58 157 0.9 1.7 0.00 0.13 0.13 91 1012.8
20260509174431 58 157 0.0 1.7 0.00 0.13 0.13 90 1013.0
20260509173927 59 154 0.0 0.9 0.00 0.13 0.13 90 1012.7
20260509173426 58 129 0.9 1.7 0.00 0.13 0.13 93 1012.5
20260509172923 58 226 2.6 3.5 0.00 0.13 0.13 91 1012.6
20260509172420 59 164 0.9 0.9 0.00 0.13 0.13 91 1012.6
20260509171916 59 231 1.7 1.7 0.00 0.13 0.13 90 1012.8
20260509171412 58 236 1.7 1.7 0.00 0.13 0.13 90 1012.9
20260509170908 58 224 0.9 1.7 0.00 0.13 0.13 91 1013.2
20260509170404 58 219 1.7 1.7 0.00 0.13 0.13 91 1013.2
20260509165900 58 227 0.9 1.7 0.00 0.13 0.13 89 1013.2
20260509165354 58 226 0.0 1.7 0.00 0.13 0.13 87 1013.3
20260509164850 58 212 0.0 0.9 0.00 0.13 0.13 90 1013.5
20260509164346 58 221 0.9 1.7 0.00 0.13 0.13 92 1013.5
20260509163843 56 37 0.9 1.7 0.00 0.13 0.13 93 1013.7
20260509163340 56 106 1.7 1.7 0.00 0.13 0.13 91 1013.4
20260509162839 57 173 0.0 0.9 0.00 0.13 0.13 91 1013.5
20260509162337 56 213 1.7 1.7 0.00 0.13 0.13 90 1013.6
20260509161834 56 289 0.0 0.0 0.00 0.13 0.13 88 1013.6
20260509161330 56 226 0.9 1.7 0.00 0.13 0.13 89 1013.8
20260509160827 56 216 0.9 1.7 0.00 0.13 0.13 91 1013.7
20260509160323 55 345 0.0 0.0 0.00 0.13 0.13 91 1013.6
20260509155818 55 345 0.9 0.9 0.00 0.13 0.13 90 1013.7
20260509155314 55 335 0.0 0.0 0.00 0.13 0.13 90 1013.7
20260509154810 55 334 0.9 1.7 0.00 0.13 0.13 90 1013.7
20260509154307 54 334 0.0 0.9 0.00 0.13 0.13 90 1013.7
20260509153804 54 329 0.9 2.6 0.00 0.13 0.13 91 1013.6
20260509153300 54 323 0.9 1.7 0.00 0.13 0.13 92 1013.5
20260509152757 54 333 1.7 2.6 0.00 0.13 0.13 92 1013.6
20260509152253 54 239 0.0 0.0 0.00 0.13 0.13 92 1013.4
20260509151751 54 314 0.0 1.7 0.00 0.13 0.13 94 1013.6
20260509151247 54 156 0.0 0.9 0.00 0.13 0.13 93 1013.6
20260509150745 54 161 0.0 0.9 0.00 0.13 0.13 93 1013.5
20260509150244 54 229 0.9 2.6 0.00 0.13 0.13 95 1013.4
20260509145740 54 241 2.6 3.5 0.00 0.13 0.13 95 1013.5
20260509145234 53 234 0.0 0.9 0.00 0.13 0.13 96 1013.5
20260509144732 52 224 1.7 2.6 0.00 0.13 0.13 95 1013.6
20260509144228 52 229 1.7 2.6 0.00 0.13 0.13 96 1013.6
20260509143725 51 122 0.0 0.0 0.00 0.13 0.13 97 1013.5
20260509143223 50 123 0.0 0.0 0.00 0.13 0.13 97 1013.7
20260509142718 50 122 0.0 0.9 0.00 0.13 0.13 98 1013.6
20260509142215 50 138 0.0 1.7 0.00 0.13 0.13 98 1013.8
20260509141710 50 95 0.0 0.9 0.00 0.13 0.13 98 1013.9
20260509141208 50 72 0.0 0.9 0.07 0.13 0.13 98 1013.8
20260509140704 50 76 0.9 1.7 0.07 0.13 0.13 98 1014.0
20260509140202 50 190 0.0 0.0 0.00 0.12 0.12 98 1014.0
20260509135659 50 189 0.0 0.0 0.05 0.12 0.12 98 1013.8
20260509135157 50 182 0.0 0.0 0.05 0.12 0.12 98 1013.7
20260509134653 50 182 0.0 0.9 0.00 0.11 0.11 98 1013.8
20260509134151 50 124 0.0 0.0 0.07 0.11 0.11 98 1013.7
20260509133648 49 121 0.0 0.0 0.07 0.11 0.11 98 1013.5
20260509133145 49 121 0.9 0.9 0.00 0.10 0.10 98 1013.3
20260509132643 49 31 0.0 0.0 0.00 0.10 0.10 98 1013.4
20260509132142 49 30 0.0 0.0 0.07 0.10 0.10 98 1013.6
20260509131637 49 21 0.0 0.0 0.05 0.09 0.09 98 1013.5
20260509131135 50 18 0.0 0.0 0.05 0.09 0.09 98 1013.5
20260509130630 50 17 0.0 0.0 0.07 0.08 0.08 98 1013.5
20260509130127 50 16 0.0 0.0 0.07 0.08 0.08 98 1013.7
20260509125623 50 16 0.0 0.0 0.05 0.07 0.07 98 1013.6
20260509125120 50 16 0.0 0.0 0.12 0.07 0.07 98 1013.6
20260509124617 50 16 0.0 0.0 0.07 0.06 0.06 97 1013.8
20260509124114 50 11 0.0 0.0 0.00 0.05 0.05 97 1013.8
20260509123612 50 11 0.9 1.7 0.05 0.05 0.05 97 1013.7
20260509123108 50 255 0.0 0.0 0.00 0.04 0.04 97 1013.7
20260509122604 50 243 0.0 0.0 0.07 0.04 0.04 97 1013.6
20260509122101 50 243 0.0 0.0 0.07 0.04 0.04 96 1013.6
20260509121558 50 243 0.0 0.0 0.00 0.03 0.03 97 1013.6
20260509121056 50 270 0.0 0.0 0.05 0.03 0.03 96 1013.6
20260509120554 50 272 0.0 0.0 0.05 0.03 0.03 96 1014.0
20260509120052 50 272 0.0 0.0 0.07 0.02 0.02 96 1013.8
20260509115548 49 280 0.0 0.0 0.07 0.02 0.02 95 1013.9
20260509115046 49 286 0.0 0.0 0.00 0.01 0.01 95 1013.9
20260509114544 49 285 0.0 0.9 0.05 0.01 0.01 95 1014.1
20260509114043 49 232 2.6 2.6 0.05 0.01 0.01 95 1013.8
20260509113541 49 24 0.9 2.6 0.00 0.00 0.00 93 1014.1
20260509113038 49 199 0.0 0.0 0.00 0.00 0.00 93 1013.9
20260509112534 50 268 0.0 0.0 0.00 0.00 0.00 92 1014.0
20260509112031 50 233 1.7 2.6 0.00 0.00 0.00 91 1013.9
20260509111528 49 225 0.0 0.9 0.00 0.00 0.00 91 1013.8
20260509111025 50 228 0.9 0.9 0.00 0.00 0.00 91 1013.9
20260509110522 49 227 1.7 1.7 0.00 0.00 0.00 89 1013.7
20260509110019 49 155 0.0 0.0 0.00 0.00 0.00 88 1013.8
20260509105518 49 155 0.0 0.0 0.00 0.00 0.00 90 1013.5
20260509105015 49 158 0.0 1.7 0.00 0.00 0.00 90 1013.3
20260509104512 49 54 1.7 1.7 0.00 0.00 0.00 90 1013.2
20260509104009 49 76 0.9 1.7 0.00 0.00 0.00 90 1013.2
20260509103507 49 207 0.0 0.0 0.00 0.00 0.00 90 1013.3
20260509103004 50 208 0.0 0.0 0.00 0.00 0.00 89 1013.0
20260509102501 50 208 0.0 0.0 0.00 0.00 0.00 89 1013.0
20260509101958 50 208 0.0 0.0 0.00 0.00 0.00 86 1013.1
20260509101454 50 208 0.9 1.7 0.00 0.00 0.00 88 1013.0
20260509100951 49 225 0.9 1.7 0.00 0.00 0.00 89 1013.2
20260509100449 48 221 0.9 0.9 0.00 0.00 0.00 90 1013.2
20260509095945 49 216 1.7 1.7 0.00 0.00 0.00 89 1013.1
20260509095442 50 231 1.7 1.7 0.00 0.00 0.00 89 1013.3
20260509094939 50 224 1.7 1.7 0.00 0.00 0.00 88 1013.0
20260509094436 50 217 0.0 0.0 0.00 0.00 0.00 86 1013.3
20260509093933 49 215 0.0 0.0 0.00 0.00 0.00 86 1012.9
20260509093431 49 215 0.0 0.0 0.00 0.00 0.00 87 1013.1
20260509092929 49 215 0.0 0.0 0.00 0.00 0.00 87 1012.9
20260509092426 49 194 0.0 0.0 0.00 0.00 0.00 87 1012.9
20260509091925 49 194 0.0 0.0 0.00 0.00 0.00 86 1012.9
20260509091421 49 194 0.0 0.0 0.00 0.00 0.00 85 1012.9
20260509090918 48 194 0.0 0.0 0.00 0.00 0.00 85 1012.8
20260509090415 49 194 0.0 0.0 0.00 0.00 0.00 85 1012.9
20260509085913 48 194 0.0 0.0 0.00 0.00 0.00 86 1012.9
20260509085410 48 194 0.0 0.0 0.00 0.00 0.00 86 1012.9
20260509084906 48 194 0.0 0.0 0.00 0.00 0.00 87 1012.8
20260509084403 48 194 0.0 0.0 0.00 0.00 0.00 85 1012.8
20260509083901 48 196 0.0 0.0 0.00 0.00 0.00 86 1012.8
20260509083358 49 196 0.0 0.0 0.00 0.00 0.00 86 1013.0
20260509082854 48 195 0.0 0.0 0.00 0.00 0.00 83 1012.8
20260509082351 48 195 0.0 0.0 0.00 0.00 0.00 84 1012.9
20260509081848 48 195 0.0 0.0 0.00 0.00 0.00 84 1013.2
20260509081345 49 195 0.0 0.0 0.00 0.00 0.00 82 1013.1
20260509080843 48 195 0.0 0.0 0.00 0.00 0.00 84 1013.0
20260509080341 49 198 0.0 0.0 0.00 0.00 0.00 85 1013.2
20260509075839 49 211 0.0 0.0 0.00 0.00 0.00 85 1013.2
20260509075336 49 211 0.0 0.0 0.00 0.00 0.00 82 1013.1
20260509074833 49 210 0.0 0.0 0.00 0.00 0.00 80 1013.3
20260509074331 48 211 0.0 0.0 0.00 0.00 0.00 82 1013.0
20260509073826 48 226 0.0 0.0 0.00 0.00 0.00 83 1013.2
20260509073323 48 228 0.0 0.0 0.00 0.00 0.00 84 1013.3
20260509072820 48 228 0.0 0.0 0.00 0.00 0.00 84 1013.2
20260509072316 49 226 0.9 0.9 0.00 0.00 0.00 84 1013.1
20260509071813 48 227 0.0 0.0 0.00 0.00 0.00 82 1013.1
20260509071310 49 227 0.0 0.0 0.00 0.00 0.00 84 1013.0
20260509070807 49 227 0.0 0.0 0.00 0.00 0.00 82 1013.2
20260509070303 49 227 0.0 0.0 0.00 0.00 0.00 81 1013.0
20260509065800 49 227 0.0 0.9 0.00 0.00 0.00 85 1013.4
20260509065256 49 223 0.9 1.7 0.00 0.00 0.00 84 1013.1
20260509064752 49 94 0.0 0.0 0.00 0.00 0.00 81 1013.3
20260509064250 49 94 0.0 0.0 0.00 0.00 0.00 81 1013.2
20260509063748 49 88 0.0 0.0 0.00 0.00 0.00 80 1013.3
20260509063243 49 88 0.0 0.0 0.00 0.00 0.00 79 1013.3
20260509062741 49 99 0.0 0.0 0.00 0.00 0.00 80 1013.3
20260509062238 49 99 0.0 0.0 0.00 0.00 0.00 80 1013.3
20260509061735 50 99 0.0 0.0 0.00 0.00 0.00 77 1013.4
20260509061233 50 99 0.0 0.0 0.00 0.00 0.00 77 1013.3
20260509060730 50 99 0.0 0.0 0.00 0.00 0.00 76 1013.1
20260509060226 50 99 0.0 0.0 0.00 0.00 0.00 77 1013.3
20260509055722 49 99 0.0 0.0 0.00 0.00 0.00 77 1013.2
20260509055218 49 99 0.0 0.0 0.00 0.00 0.00 78 1013.1
20260509054715 49 98 0.0 0.0 0.00 0.00 0.00 80 1013.3
20260509054212 49 98 0.0 0.0 0.00 0.00 0.00 80 1013.4
20260509053710 49 98 0.0 0.0 0.00 0.00 0.00 81 1013.2
20260509053207 49 98 0.0 0.0 0.00 0.00 0.00 79 1013.4
20260509052705 50 104 0.0 0.0 0.00 0.00 0.00 78 1013.5
20260509052202 50 103 0.0 0.0 0.00 0.00 0.00 80 1013.6
20260509051700 50 216 0.0 0.9 0.00 0.00 0.00 77 1013.5
20260509051157 50 216 0.9 1.7 0.00 0.00 0.00 77 1013.7
20260509050654 50 219 0.9 0.9 0.00 0.00 0.00 78 1013.7
20260509050150 51 204 0.0 0.0 0.00 0.00 0.00 74 1013.7
20260509045648 51 204 0.0 0.0 0.00 0.00 0.00 74 1013.7
20260509045145 51 204 0.0 0.0 0.00 0.00 0.00 74 1013.6
20260509044642 51 202 0.9 0.9 0.00 0.00 0.00 75 1013.7
20260509044139 51 201 0.0 0.0 0.00 0.00 0.00 75 1013.8
20260509043635 51 77 0.0 0.0 0.00 0.00 0.00 71 1013.7
20260509043131 51 77 0.0 0.0 0.00 0.00 0.00 72 1013.7
20260509042628 51 77 0.0 0.0 0.00 0.00 0.00 75 1013.8
20260509042124 51 77 0.0 0.0 0.00 0.00 0.00 75 1013.5
20260509041621 50 67 1.7 1.7 0.00 0.00 0.00 76 1013.4
20260509041118 51 53 1.7 2.6 0.00 0.00 0.00 75 1013.5
20260509040617 51 87 0.9 1.7 0.00 0.00 0.00 75 1013.3
20260509040113 53 135 0.0 0.0 0.00 0.00 0.00 74 1013.3